This is the latest recevied weather packets stored in our database for station/object KD7CTY. If no packets are shown the sender has not sent any weather packets the latest 10 day(s).
| Time | Temp. | Humidity | Pressure | Rain* | Wind** | Luminosity | Snow |
|---|---|---|---|---|---|---|---|
| 1777908417 | 16.67° C | 71% | 1009.6 hPa | 0 mm | - | 285 W/m² | - |
| 1777908114 | 16.67° C | 70% | 1009.9 hPa | 0 mm | - | 107 W/m² | - |
| 1777907810 | 16.67° C | 69% | 1009.8 hPa | 0 mm | - | 93 W/m² | - |
| 1777907504 | 16.67° C | 68% | 1009.5 hPa | 0 mm | - | 80 W/m² | - |
| 1777907202 | 16.67° C | 69% | 1009.4 hPa | 0 mm | - | 63 W/m² | - |
| 1777906898 | 16.11° C | 70% | 1009.7 hPa | 0 mm | - | 57 W/m² | - |
| 1777906596 | 16.11° C | 69% | 1009.4 hPa | 0 mm | - | 82 W/m² | - |
| 1777906291 | 16.11° C | 69% | 1009.6 hPa | 0 mm | - | 62 W/m² | - |
| 1777905988 | 15.56° C | 69% | 1009.5 hPa | 0 mm | - | 52 W/m² | - |
| 1777905685 | 15° C | 69% | 1009.7 hPa | 0 mm | - | 46 W/m² | - |
| 1777905381 | 14.44° C | 76% | 1009.6 hPa | 0 mm | - | 45 W/m² | - |
| 1777905079 | 14.44° C | 81% | 1009.7 hPa | 0 mm | - | 43 W/m² | - |
| 1777904776 | 15° C | 81% | 1009.5 hPa | 0 mm | - | 43 W/m² | - |
| 1777904474 | 15° C | 74% | 1009.3 hPa | 0 mm | - | 43 W/m² | - |
| 1777904170 | 14.44° C | 76% | 1009.6 hPa | 0 mm | - | 42 W/m² | - |
| 1777903867 | 14.44° C | 73% | 1009.2 hPa | 0 mm | - | 43 W/m² | - |
| 1777903564 | 14.44° C | 74% | 1009.3 hPa | 0 mm | - | 41 W/m² | - |
| 1777903259 | 14.44° C | 73% | 1009.3 hPa | 0 mm | - | 38 W/m² | - |
| 1777902956 | 13.89° C | 75% | 1009.2 hPa | 0 mm | - | 38 W/m² | - |
| 1777902653 | 13.89° C | 77% | 1009.3 hPa | 0 mm | - | 35 W/m² | - |
| 1777902350 | 13.89° C | 76% | 1009.1 hPa | 0 mm | - | 34 W/m² | - |
| 1777902047 | 13.33° C | 75% | 1009.4 hPa | 0 mm | - | 31 W/m² | - |
| 1777901746 | 13.33° C | 77% | 1009.2 hPa | 0 mm | - | 28 W/m² | - |
| 1777901443 | 13.33° C | 78% | 1009.2 hPa | 0 mm | - | 25 W/m² | - |
| 1777901140 | 12.78° C | 76% | 1008.8 hPa | 0 mm | - | 21 W/m² | - |
* Rain latest hour (hover to see other rain measurements)
** Current wind speed in m/s (hover to see current wind gust speed)